Volver al catálogo

NOAA 17 DEB

ActivoPO
NORAD 48744·DEBRIS·🇺🇸 United States

Lanzado Jun 24, 2002 desde Vandenberg Space Force Base

Loading…

Próximos Pases (próximas 24 horas)

TLE

ActualizadoSource: Space-Track

Época: Sep 14, 2026, 07:17 UTC

1 48744U 02032CD  26257.30356049  .00003038  00000-0  80098-3 0  9998
2 48744  98.8955 282.6247 0011751 335.2648  24.7980 14.49721498286544

Sigue NOAA 17 DEB en tiempo real con AllMySat

Download on the App Store